Total_Precipitation_Accumulation
1.71 1.77 1.87 1.85 1.93 2.03 2.08 2.00 2.10 2.21 2.34 2.31 2.24 2.19 2.06 2.00 2.09 2.20 2.07 2.22 2.22 2.24 2.22 2.30 2.35 2.52 2.66 2.61 2.67 2.73 3.00 3.32 3.23 2.97 2.69 2.51 2.43 2.41 2.25 2.17 2.08 1.98 1.80
1.69 1.72 1.84 1.91 1.88 1.84 1.81 1.83 1.90 1.93 2.00 2.02 1.98 1.98 1.98 2.07 2.18 2.10 2.04 2.08 2.16 2.14 2.22 2.38 2.27 2.45 2.59 2.51 2.62 2.64 2.82 3.18 3.33 3.41 3.33 3.03 2.77 2.63 2.56 2.35 1.93 1.77 1.81
1.75 1.74 1.87 1.81 1.74 1.78 1.91 1.98 1.95 1.95 1.97 1.93 1.92 1.92 1.95 2.14 2.26 2.21 2.19 2.25 2.29 2.17 2.28 2.32 2.20 2.32 2.38 2.40 2.46 2.53 2.71 2.92 3.20 3.17 3.20 3.13 2.98 2.74 2.84 2.54 2.21 2.14 1.76
1.71 1.80 1.92 1.88 1.88 1.98 2.09 2.18 2.12 2.02 2.03 2.09 2.08 2.03 2.05 2.00 2.03 2.17 2.30 2.31 2.28 2.19 2.17 2.09 1.98 1.99 2.07 2.25 2.26 2.40 2.61 2.81 3.01 2.96 3.02 3.12 3.20 3.21 3.24 2.99 2.78 2.54 2.16
1.71 1.86 1.97 2.03 2.03 2.05 2.07 2.16 2.14 2.01 1.98 2.19 2.20 2.16 2.15 2.02 1.90 1.99 2.10 2.05 2.09 2.05 1.99 1.82 1.64 1.69 1.79 1.88 1.81 2.17 2.49 2.61 2.70 2.78 2.87 3.07 3.23 3.47 3.27 3.13 3.01 2.95 2.64
1.59 1.76 1.83 1.95 2.05 2.05 2.03 2.08 2.08 2.11 2.14 2.17 2.12 2.12 2.03 1.73 1.79 1.74 1.70 1.74 1.81 1.84 1.87 1.84 1.68 1.58 1.54 1.58 1.56 1.72 2.04 2.20 2.40 2.69 2.82 3.03 3.13 3.16 3.33 3.31 3.26 3.11 2.82
1.48 1.62 1.75 1.88 1.96 1.99 1.95 2.04 2.16 2.14 2.06 1.96 1.90 1.90 1.85 1.77 1.62 1.41 1.37 1.49 1.67 1.75 1.80 1.82 1.58 1.47 1.53 1.41 1.50 1.56 1.60 1.70 1.87 2.25 2.52 2.62 2.68 2.73 3.04 3.15 3.16 3.03 2.93
1.56 1.68 1.75 1.89 1.94 1.96 1.94 1.91 1.93 1.92 1.90 1.92 1.82 1.80 1.87 1.77 1.67 1.42 1.32 1.28 1.46 1.52 1.51 1.55 1.59 1.57 1.49 1.53 1.51 1.50 1.42 1.45 1.55 1.59 1.76 1.98 2.26 2.50 2.71 2.91 3.19 3.15 3.08
1.58 1.73 1.84 1.94 1.96 1.94 1.95 1.90 1.93 1.92 1.86 1.87 1.85 1.87 1.85 1.79 1.72 1.50 1.41 1.37 1.48 1.50 1.53 1.54 1.63 1.69 1.71 1.56 1.50 1.53 1.53 1.55 1.51 1.52 1.47 1.57 1.74 1.88 2.06 2.34 2.70 3.04 3.25
1.63 1.73 1.84 1.93 2.05 2.00 2.08 2.11 2.07 1.97 1.89 1.88 1.92 1.88 1.78 1.73 1.62 1.43 1.41 1.42 1.61 1.71 1.82 1.81 1.72 1.60 1.61 1.50 1.47 1.55 1.53 1.53 1.45 1.42 1.37 1.35 1.35 1.49 1.68 1.88 2.18 2.56 2.85
1.70 1.80 1.90 1.99 2.05 2.04 2.10 2.13 2.11 2.05 2.03 1.91 1.80 1.81 1.81 1.71 1.52 1.25 1.22 1.26 1.51 1.75 1.80 1.75 1.63 1.47 1.33 1.29 1.27 1.37 1.46 1.39 1.39 1.43 1.47 1.46 1.46 1.51 1.58 1.68 1.97 2.23 2.38
1.83 1.82 1.89 2.01 1.86 1.85 2.08 2.15 2.18 2.20 2.16 2.04 1.91 1.83 1.85 1.79 1.51 1.31 1.25 1.25 1.40 1.66 1.86 1.82 1.67 1.48 1.30 1.22 1.08 1.13 1.19 1.13 1.20 1.38 1.45 1.47 1.48 1.50 1.59 1.71 1.92 2.13 2.30
1.82 1.86 1.87 1.91 2.02 2.09 2.16 2.22 2.19 2.14 2.13 2.09 2.04 1.93 1.91 1.93 1.86 1.58 1.42 1.37 1.45 1.52 1.68 1.85 1.73 1.43 1.20 1.10 1.08 1.00 0.90 0.90 1.05 1.18 1.26 1.36 1.41 1.50 1.63 1.80 2.02 2.19 2.25
1.92 2.01 1.98 1.95 1.98 2.15 2.33 2.34 2.27 2.13 2.17 2.21 2.11 2.09 2.10 2.12 2.01 1.77 1.60 1.49 1.51 1.48 1.49 1.51 1.46 1.32 1.14 1.15 1.17 1.04 0.92 0.99 1.06 1.07 1.15 1.28 1.36 1.45 1.60 1.71 1.89 2.11 2.24
2.09 2.08 2.10 2.11 2.16 2.24 2.24 2.24 2.24 2.20 2.15 2.20 2.17 2.14 2.12 2.06 1.94 1.81 1.68 1.62 1.60 1.54 1.45 1.46 1.42 1.42 1.29 1.23 1.28 1.27 1.24 1.27 1.23 1.18 1.22 1.26 1.31 1.37 1.45 1.58 1.75 1.87 1.97
2.36 2.27 2.27 2.26 2.28 2.26 2.29 2.13 2.01 1.93 1.88 1.79 1.82 1.80 1.74 1.70 1.64 1.55 1.53 1.51 1.48 1.47 1.36 1.44 1.55 1.53 1.48 1.46 1.45 1.43 1.43 1.40 1.39 1.42 1.40 1.36 1.36 1.38 1.36 1.42 1.57 1.66 1.69
2.53 2.50 2.39 2.32 2.25 2.22 2.30 2.31 2.22 2.09 2.05 1.90 1.74 1.64 1.59 1.55 1.47 1.39 1.39 1.43 1.43 1.40 1.32 1.43 1.59 1.61 1.61 1.61 1.55 1.51 1.54 1.49 1.49 1.51 1.48 1.47 1.50 1.51 1.48 1.49 1.59 1.70 1.71
2.46 2.43 2.36 2.31 2.24 2.21 2.29 2.36 2.30 2.25 2.24 2.11 1.89 1.75 1.57 1.41 1.32 1.31 1.38 1.38 1.35 1.34 1.40 1.57 1.74 1.74 1.74 1.72 1.64 1.56 1.57 1.54 1.52 1.52 1.52 1.49 1.52 1.58 1.60 1.57 1.58 1.66 1.67
2.43 2.37 2.33 2.28 2.32 2.38 2.40 2.45 2.42 2.38 2.33 2.23 1.98 1.80 1.68 1.45 1.33 1.31 1.32 1.28 1.40 1.51 1.58 1.67 1.71 1.72 1.73 1.68 1.59 1.54 1.58 1.55 1.52 1.55 1.56 1.56 1.55 1.63 1.62 1.59 1.58 1.65 1.58
2.52 2.51 2.41 2.27 2.24 2.34 2.44 2.39 2.36 2.39 2.34 2.24 2.12 1.90 1.66 1.49 1.41 1.41 1.34 1.35 1.45 1.52 1.54 1.55 1.54 1.53 1.56 1.58 1.59 1.60 1.66 1.63 1.61 1.60 1.55 1.53 1.52 1.56 1.58 1.59 1.57 1.56 1.52
2.25 2.20 2.16 2.01 1.97 2.01 2.17 2.24 2.24 2.32 2.25 2.12 2.03 1.97 1.75 1.47 1.47 1.47 1.46 1.43 1.45 1.48 1.48 1.47 1.46 1.43 1.40 1.47 1.52 1.54 1.58 1.60 1.56 1.52 1.50 1.51 1.47 1.51 1.51 1.49 1.46 1.41 1.41
2.09 2.05 1.94 1.84 1.86 1.94 2.04 2.09 2.16 2.24 2.22 2.13 1.98 1.89 1.81 1.54 1.48 1.45 1.40 1.37 1.36 1.36 1.36 1.45 1.47 1.42 1.38 1.44 1.48 1.49 1.49 1.46 1.42 1.41 1.39 1.37 1.38 1.43 1.43 1.44 1.46 1.45 1.43
2.23 2.15 2.11 2.06 1.97 2.03 2.01 2.04 2.15 2.11 2.04 2.02 1.95 1.82 1.72 1.70 1.60 1.51 1.41 1.34 1.31 1.30 1.29 1.32 1.36 1.34 1.32 1.32 1.34 1.33 1.28 1.25 1.23 1.20 1.24 1.28 1.32 1.39 1.40 1.42 1.47 1.52 1.51
2.25 2.26 2.16 2.03 1.94 1.89 1.89 1.98 2.02 1.92 1.80 1.78 1.75 1.64 1.62 1.64 1.58 1.50 1.35 1.28 1.28 1.26 1.21 1.17 1.11 1.06 1.06 1.07 1.11 1.12 1.08 1.06 1.07 1.09 1.13 1.22 1.27 1.30 1.34 1.40 1.48 1.53 1.52
2.05 2.13 2.15 2.06 1.91 1.78 1.71 1.73 1.70 1.64 1.59 1.56 1.56 1.55 1.54 1.48 1.41 1.33 1.25 1.22 1.19 1.13 1.03 0.98 0.97 0.96 0.93 0.93 0.93 0.96 1.02 1.04 1.06 1.04 1.05 1.13 1.19 1.25 1.26 1.30 1.37 1.43 1.42
1.89 1.92 1.88 1.79 1.66 1.54 1.51 1.52 1.50 1.44 1.39 1.34 1.30 1.29 1.24 1.20 1.16 1.11 1.04 1.03 1.04 1.03 1.00 0.96 0.96 0.96 0.96 0.93 0.91 0.92 0.91 0.86 0.89 0.92 0.87 0.89 1.02 1.11 1.10 1.05 1.05 1.15 1.18